Wetbulb
72.98 72.81 73.87 66.63 57.73 56.63 52.77 54.92 59.91 58.59 59.46 62.87 63.54 62.14 60.65 61.54 59.74 53.86 68.17 69.48 71.15 71.81 73.20 74.30 76.76 76.78 76.83 76.70 76.68 76.74 76.64 76.64 76.69 76.76 76.93 76.82 76.62 76.54 76.47 76.72 76.99 76.77 76.99 76.33 76.57 76.90 76.58 76.70 76.40
72.52 72.93 68.56 61.21 54.17 49.30 50.48 58.23 57.48 59.76 61.89 63.06 63.17 62.16 60.07 58.72 65.27 65.43 66.04 70.75 71.53 72.07 72.74 73.84 76.03 76.79 76.78 76.52 76.50 76.27 76.27 76.58 76.62 76.93 76.76 76.77 76.58 76.48 76.35 76.78 76.97 77.13 76.91 77.36 77.13 77.03 76.68 76.41 75.97
72.67 71.83 61.59 57.54 53.43 51.57 52.96 58.76 59.82 61.72 62.99 61.90 60.91 63.71 62.10 61.10 66.29 66.45 68.44 70.58 71.46 70.90 72.71 74.21 75.71 76.41 76.39 76.50 76.65 76.38 76.89 76.77 76.27 76.04 76.43 77.00 77.08 76.96 76.60 76.71 77.21 76.60 77.04 76.91 76.79 76.19 75.94 75.94 75.45
70.39 66.20 62.39 54.35 52.01 56.52 58.06 59.81 61.98 61.10 62.74 63.49 62.90 59.93 64.71 67.56 66.55 68.43 69.90 70.23 71.46 71.78 73.48 74.89 76.41 76.26 76.26 76.45 76.65 76.69 76.47 76.57 76.31 76.45 76.92 76.98 76.60 76.77 76.85 77.19 77.16 76.91 76.77 76.39 76.36 76.37 76.43 76.10 75.38
67.06 61.57 53.87 52.89 53.22 57.68 60.76 62.68 62.98 60.55 61.12 61.85 62.13 59.00 61.80 67.23 69.56 70.11 70.29 70.93 70.38 70.90 72.25 73.84 75.87 76.26 76.24 76.18 76.19 75.97 76.29 76.29 76.14 76.18 76.78 77.06 77.09 77.06 76.61 76.65 76.34 76.37 76.56 76.79 76.41 76.18 75.56 74.79 74.57
61.51 61.15 52.16 50.13 53.59 57.61 59.76 62.53 61.99 60.94 61.50 61.82 60.87 60.97 62.43 68.31 68.69 69.30 69.87 69.47 70.86 70.23 71.19 72.74 74.74 75.80 76.00 75.60 75.96 75.72 75.49 75.90 76.11 76.68 76.68 76.82 77.19 76.89 77.02 77.10 77.20 76.96 76.58 76.11 76.03 75.40 74.46 73.93 74.46
58.93 56.96 52.66 53.30 54.22 56.34 60.14 63.38 60.61 60.08 60.42 60.42 63.32 59.30 62.88 66.49 69.15 68.82 68.37 68.81 69.33 69.62 69.94 70.83 72.07 73.57 75.47 75.41 75.75 75.56 75.85 76.06 76.12 76.23 75.77 76.09 76.76 76.99 76.93 77.05 76.61 76.15 75.90 75.82 75.59 75.32 75.18 74.65 74.88
62.60 57.89 53.91 55.01 53.51 55.93 61.79 62.37 63.23 61.67 59.70 65.01 64.92 59.22 60.17 65.16 67.65 66.52 66.85 66.97 67.71 68.49 69.39 69.36 69.89 70.65 71.12 72.26 75.34 75.44 75.65 75.35 75.08 75.20 75.30 75.61 76.62 76.77 76.74 76.77 76.54 75.87 75.51 75.35 75.29 75.51 75.87 76.11 75.76
66.88 54.45 53.90 54.54 55.63 57.28 63.25 60.90 63.89 64.79 61.63 63.26 64.20 63.46 64.98 67.31 65.56 64.74 64.65 65.22 66.22 67.96 68.06 68.39 68.38 68.93 69.93 71.06 73.25 74.09 75.43 75.30 75.39 75.01 75.50 75.04 72.73 72.35 73.87 75.24 75.39 75.15 74.96 75.32 75.90 76.26 76.61 76.97 76.93
59.69 54.40 55.45 59.97 60.59 58.78 61.30 62.22 61.75 60.61 60.82 60.94 62.28 65.11 65.99 65.58 64.15 63.00 62.48 62.84 63.71 65.18 67.01 67.41 67.64 68.07 69.51 72.80 71.04 69.98 71.78 70.06 70.56 70.91 71.37 70.76 70.34 71.33 73.35 73.87 75.64 75.54 75.57 75.68 76.20 76.53 76.45 75.99 71.70
62.29 56.65 60.38 61.85 61.54 61.74 61.06 62.27 64.06 59.99 58.60 60.47 60.66 62.88 64.09 64.02 63.07 62.54 62.46 62.62 62.64 64.93 67.03 67.50 67.50 68.81 69.30 70.41 69.50 69.08 69.04 68.57 69.70 70.79 70.34 69.61 69.91 69.76 69.73 70.46 71.75 71.02 73.25 71.68 72.21 71.69 71.83 71.50 72.90
59.01 62.08 61.24 62.62 63.33 62.32 61.27 63.16 61.08 61.33 61.60 63.71 64.26 64.58 63.90 62.93 62.26 62.23 62.30 62.46 62.64 64.26 66.05 67.27 67.92 68.29 68.78 68.46 68.59 68.93 69.79 69.67 70.82 70.00 70.56 69.34 68.51 68.53 68.62 69.50 69.35 68.82 69.59 69.71 71.01 69.95 69.36 70.72 72.17
60.51 61.59 61.65 62.70 62.87 62.85 62.86 61.62 61.88 61.12 63.89 65.09 64.99 64.66 63.24 62.60 62.34 62.58 63.59 62.96 62.95 63.29 64.91 66.20 66.84 67.85 68.64 68.91 67.99 68.14 70.53 70.21 70.35 71.03 70.72 69.99 69.01 68.93 68.68 67.55 67.64 67.37 67.81 69.27 68.78 69.46 71.38 70.74 68.50
61.03 62.19 61.18 62.17 61.24 61.11 60.49 61.62 61.40 61.98 64.45 63.80 63.89 63.30 63.32 62.92 62.20 62.59 62.64 62.13 62.07 62.75 63.46 65.82 66.09 67.53 68.43 70.17 70.22 68.32 68.89 69.10 69.82 69.97 69.92 70.28 69.60 69.20 67.08 67.29 65.88 67.51 67.93 67.44 67.60 68.88 70.47 70.10 68.83
61.22 57.89 60.08 60.23 60.15 59.43 61.75 59.01 57.51 62.38 63.55 62.31 62.76 63.05 63.36 63.24 62.86 62.44 63.06 62.42 62.22 62.31 63.01 62.87 65.47 67.19 68.18 68.95 70.45 70.35 70.56 70.87 69.97 70.12 69.66 70.35 70.11 69.01 68.04 66.41 66.03 68.44 69.30 69.33 70.22 71.87 71.04 68.14 67.83
57.88 58.20 52.31 58.56 59.37 60.21 59.77 53.32 60.28 62.83 62.43 61.14 61.99 62.75 62.61 62.30 63.14 63.85 63.64 62.85 62.17 62.37 61.85 62.63 65.66 65.89 67.43 68.91 69.30 69.68 69.66 69.77 69.03 68.81 69.15 70.96 70.44 68.79 67.74 65.54 67.28 68.65 69.76 70.43 71.73 69.63 65.13 68.85 68.04
54.12 49.47 51.60 54.70 59.98 60.33 58.13 53.65 58.82 62.04 60.87 60.47 61.44 61.98 62.04 62.23 63.18 64.62 64.61 64.00 62.85 62.18 61.69 61.86 62.57 65.19 67.36 68.52 68.70 68.94 69.41 68.42 68.92 68.84 69.07 69.57 69.56 68.85 66.11 67.29 67.93 69.72 70.34 71.26 69.14 68.39 64.50 66.93 66.44
48.63 49.05 51.89 53.36 57.20 59.07 57.19 54.86 58.11 60.37 60.85 59.19 60.87 60.96 60.89 61.14 62.80 64.74 65.84 66.26 64.85 63.42 62.82 62.30 63.44 65.50 67.83 68.58 68.56 67.17 66.38 68.25 69.20 68.59 69.15 68.62 67.24 68.05 66.91 65.13 69.41 70.55 69.02 70.21 70.30 70.71 70.85 71.26 67.64
52.98 52.83 51.89 55.55 59.11 57.50 56.48 55.92 57.95 59.68 59.72 58.53 58.51 60.36 60.14 60.99 63.41 64.60 65.81 66.95 66.74 66.68 65.56 64.67 65.71 66.27 67.76 66.88 65.04 63.49 64.61 65.95 67.85 68.37 69.60 67.95 68.62 69.67 69.77 70.16 70.73 69.08 68.80 69.46 68.97 71.01 70.22 69.98 67.61
54.53 52.70 52.27 56.99 58.88 57.71 56.28 55.34 57.76 58.93 58.54 58.99 59.61 60.15 60.38 61.22 62.43 63.86 64.42 65.75 66.73 66.58 66.62 66.21 65.96 65.84 67.59 67.51 66.34 65.74 66.44 67.29 68.05 69.02 69.17 69.60 69.50 70.03 70.82 70.24 70.80 70.24 69.00 68.93 69.06 69.96 69.12 69.55 69.02
52.57 52.03 53.45 53.54 57.39 57.27 55.62 50.98 54.22 58.11 60.03 60.09 60.56 61.61 61.61 61.78 61.76 63.44 64.18 64.53 66.32 66.20 66.82 67.12 66.04 65.98 67.62 67.90 67.93 67.73 68.10 67.60 67.91 68.19 68.32 69.80 70.53 70.65 70.78 70.58 70.45 70.22 70.49 69.75 69.73 70.32 69.46 67.59 69.29
48.92 55.85 56.72 55.75 52.03 47.21 54.38 43.32 49.48 54.50 57.18 59.48 59.60 60.02 61.41 62.21 62.96 63.79 64.15 64.34 65.41 66.35 67.94 67.97 66.86 66.31 67.55 68.27 67.25 67.28 66.05 65.39 66.73 66.68 67.19 67.96 70.04 71.05 71.12 71.53 70.93 69.85 69.02 69.29 70.54 71.31 70.27 69.26 67.81
51.61 56.96 56.21 55.21 50.80 49.45 50.20 46.29 47.75 52.50 53.01 56.83 59.52 60.12 61.59 62.20 63.12 63.43 64.25 65.03 66.79 67.86 67.74 68.04 66.42 66.78 67.68 67.94 67.27 67.11 66.14 65.63 66.70 67.64 67.28 66.98 67.65 71.23 71.59 71.28 71.63 69.93 69.42 69.13 70.32 71.03 70.78 70.09 68.89
55.67 55.24 54.30 52.22 47.70 41.87 46.08 47.47 46.84 49.83 52.31 55.11 58.52 60.55 61.69 62.13 62.93 63.60 64.77 65.90 66.72 68.04 68.22 68.26 66.59 66.04 67.39 68.02 68.38 66.82 66.67 66.55 65.99 66.82 67.33 67.90 67.67 70.48 70.78 71.80 70.76 69.46 69.50 69.49 70.97 71.22 70.97 70.21 69.67
49.04 45.94 42.03 40.51 40.23 40.70 47.42 46.99 49.71 54.00 56.12 55.99 56.92 59.66 61.62 62.44 63.05 62.40 63.49 65.81 66.25 66.52 67.42 68.92 67.36 66.41 66.79 67.70 68.76 68.19 67.70 67.39 66.50 66.92 66.64 67.24 67.80 69.57 70.08 70.94 70.33 69.64 71.03 71.31 71.15 70.81 70.38 70.27 69.32
43.13 41.28 37.44 34.07 37.34 40.43 48.58 44.79 48.87 56.27 57.86 58.11 59.16 61.01 62.41 62.28 62.80 62.65 63.98 65.45 66.12 66.96 66.87 67.41 68.61 66.99 67.52 67.29 67.61 69.12 68.40 67.69 67.20 66.78 66.48 66.77 68.30 69.48 70.64 71.24 70.96 70.28 71.13 71.62 71.35 70.92 70.56 70.84 69.80
43.03 43.07 44.58 39.96 40.84 39.52 43.23 47.56 53.37 57.21 55.85 56.92 58.12 59.99 61.41 62.23 62.40 62.26 64.51 65.82 66.47 66.74 66.92 67.29 67.40 68.36 68.58 68.67 68.33 68.19 68.83 68.61 67.69 67.45 65.90 66.13 68.35 70.10 69.39 71.18 71.63 71.02 71.16 71.78 70.88 70.66 70.67 70.36 70.67
46.54 48.73 42.21 39.41 35.60 35.04 41.78 43.55 45.84 51.22 54.74 56.35 57.04 57.01 60.08 61.20 62.67 63.11 64.04 65.18 66.25 66.74 67.57 68.22 67.70 67.86 69.28 69.41 69.25 69.58 69.24 69.38 69.05 68.37 68.20 67.74 68.87 68.96 69.77 70.32 71.61 71.75 71.06 71.73 70.43 70.33 70.67 70.44 70.51
44.00 41.82 40.52 41.36 40.36 36.73 36.81 41.77 50.37 52.37 56.05 56.46 57.35 57.93 58.98 61.22 61.57 63.09 64.55 65.53 65.74 66.21 66.54 67.59 67.41 67.06 67.61 70.03 69.56 69.97 69.89 69.98 69.40 69.32 69.19 69.52 69.76 69.16 69.38 70.63 70.01 70.42 70.29 70.20 70.76 70.96 70.98 70.29 70.07
47.37 43.47 41.04 37.83 36.26 40.43 40.33 42.11 51.93 54.52 56.67 57.58 58.05 59.23 60.07 61.64 62.36 63.56 64.01 64.76 64.99 66.23 67.02 67.39 68.54 67.82 67.56 67.91 67.35 68.41 69.13 69.81 70.03 69.98 69.69 69.62 69.52 69.71 69.67 69.25 68.96 68.60 68.64 68.38 69.53 70.72 71.75 70.35 69.55
MSLP
1010.85 1010.97 1011.07 1011.53 1012.21 1011.44 1010.56 1009.87 1009.25 1009.20 1009.39 1009.79 1009.78 1010.50 1011.63 1012.31 1012.65 1013.70 1013.20 1013.54 1013.46 1013.80 1013.87 1014.02 1013.89 1013.91 1013.96 1014.09 1014.20 1014.37 1014.50 1014.68 1014.85 1015.01 1015.12 1015.36 1015.51 1015.59 1015.58 1015.63 1015.76 1016.03 1016.06 1016.25 1016.46 1016.56 1016.53 1016.63 1016.75
1010.90 1011.04 1011.46 1011.71 1011.85 1011.29 1010.38 1009.40 1009.21 1009.24 1009.59 1010.04 1010.15 1011.06 1011.70 1012.74 1012.93 1013.42 1013.64 1013.62 1013.45 1013.70 1013.97 1014.04 1014.19 1014.09 1014.08 1014.22 1014.35 1014.53 1014.59 1014.89 1015.09 1015.16 1015.30 1015.50 1015.58 1015.80 1015.78 1015.79 1015.91 1016.15 1016.32 1016.40 1016.56 1016.59 1016.70 1016.95 1017.12
1010.85 1010.87 1011.60 1011.94 1012.06 1011.35 1010.44 1009.49 1009.31 1009.52 1009.80 1009.81 1010.47 1011.04 1011.93 1012.86 1013.13 1013.39 1013.36 1013.68 1013.73 1013.88 1014.03 1014.17 1014.16 1014.23 1014.24 1014.38 1014.58 1014.79 1014.85 1015.11 1015.34 1015.45 1015.55 1015.61 1015.61 1015.83 1016.03 1016.05 1016.12 1016.29 1016.53 1016.68 1016.79 1016.91 1017.12 1017.35 1017.58
1010.71 1011.33 1012.05 1012.34 1012.32 1011.06 1010.13 1009.46 1009.73 1009.63 1009.87 1010.37 1010.92 1011.78 1012.40 1012.62 1012.95 1013.18 1013.55 1013.81 1014.07 1014.15 1014.07 1014.11 1014.15 1014.25 1014.39 1014.55 1014.70 1014.84 1015.08 1015.32 1015.45 1015.58 1015.67 1015.79 1015.83 1015.78 1016.30 1016.28 1016.35 1016.56 1016.75 1016.89 1016.99 1016.99 1017.28 1017.47 1017.70
1011.07 1011.82 1012.56 1012.72 1012.34 1011.13 1010.02 1009.34 1009.26 1009.56 1010.16 1010.72 1011.03 1012.32 1012.88 1013.05 1012.94 1013.28 1013.70 1014.03 1014.21 1014.47 1014.41 1014.31 1014.14 1014.37 1014.45 1014.60 1014.77 1015.05 1015.31 1015.54 1015.70 1015.71 1015.92 1015.94 1015.98 1016.11 1016.48 1016.55 1016.59 1016.57 1016.89 1017.00 1017.10 1017.38 1017.56 1017.70 1017.61
1012.05 1012.85 1013.45 1013.53 1012.14 1010.95 1010.05 1009.40 1009.31 1009.89 1010.46 1011.19 1011.60 1012.36 1013.40 1013.48 1013.34 1013.71 1013.94 1014.20 1014.30 1014.61 1014.59 1014.77 1014.50 1014.38 1014.50 1014.75 1015.01 1015.39 1015.64 1015.80 1015.86 1015.92 1016.07 1016.05 1016.21 1016.40 1016.57 1016.68 1016.75 1016.88 1016.99 1017.24 1017.40 1017.56 1017.72 1017.58 1017.55
1012.42 1013.28 1014.29 1013.84 1012.55 1011.02 1009.75 1009.73 1009.35 1009.82 1010.52 1011.02 1011.42 1012.66 1013.65 1013.79 1013.75 1013.87 1014.17 1014.40 1014.56 1014.68 1014.94 1015.01 1014.98 1014.56 1014.65 1014.95 1015.29 1015.64 1015.86 1015.95 1016.14 1016.23 1016.25 1016.33 1016.50 1016.60 1016.65 1016.74 1016.84 1017.03 1017.11 1017.43 1017.83 1017.95 1017.85 1017.85 1017.72
1012.47 1013.20 1013.98 1013.56 1012.37 1010.85 1009.68 1009.41 1009.99 1009.61 1010.58 1010.91 1011.23 1012.51 1013.56 1013.75 1013.96 1014.24 1014.51 1014.74 1014.86 1014.98 1014.97 1015.17 1015.19 1015.25 1015.36 1015.40 1015.67 1015.97 1015.89 1016.16 1016.37 1016.42 1016.57 1016.72 1016.75 1016.74 1016.85 1016.92 1017.00 1017.11 1017.30 1017.56 1017.65 1017.79 1017.82 1017.90 1017.61
1012.29 1013.52 1013.51 1013.07 1012.26 1010.84 1010.14 1009.41 1010.12 1010.07 1010.39 1010.96 1011.34 1012.01 1012.69 1013.58 1014.11 1014.62 1014.99 1015.27 1015.38 1015.43 1015.45 1015.42 1015.53 1015.62 1015.81 1015.94 1015.99 1016.04 1016.19 1016.33 1016.40 1016.63 1016.87 1017.03 1017.28 1017.34 1017.14 1017.21 1017.20 1017.30 1017.33 1017.40 1017.51 1017.60 1017.88 1018.23 1017.98
1012.14 1013.04 1012.72 1012.10 1011.63 1011.09 1010.44 1010.41 1010.11 1010.55 1010.69 1011.48 1012.08 1012.45 1013.01 1013.72 1014.38 1014.87 1015.27 1015.49 1015.59 1015.67 1015.71 1015.81 1015.81 1015.93 1016.08 1016.12 1016.19 1016.56 1016.66 1016.74 1016.85 1017.14 1017.32 1017.39 1017.41 1017.37 1017.27 1017.22 1017.20 1017.36 1017.33 1017.30 1017.17 1017.46 1018.14 1017.79 1017.22
1011.86 1011.86 1011.93 1011.82 1011.52 1011.44 1010.99 1010.32 1009.94 1010.56 1010.95 1010.97 1011.80 1012.77 1013.38 1014.01 1014.64 1015.05 1015.30 1015.52 1015.58 1015.72 1015.87 1015.95 1015.98 1016.08 1016.35 1016.49 1016.62 1016.76 1016.95 1017.12 1017.09 1017.29 1017.45 1017.48 1017.48 1017.54 1017.53 1017.41 1017.26 1017.41 1017.43 1017.67 1017.56 1017.53 1018.24 1018.07 1017.43
1012.27 1012.11 1011.39 1011.66 1011.65 1011.53 1011.27 1010.65 1010.06 1010.21 1010.05 1010.69 1011.81 1012.59 1013.27 1014.03 1014.48 1014.87 1015.26 1015.60 1015.77 1015.76 1015.76 1015.91 1015.87 1016.10 1016.45 1016.65 1016.81 1016.92 1017.08 1017.17 1017.34 1017.44 1017.50 1017.62 1017.68 1017.66 1017.58 1017.46 1017.42 1017.62 1017.81 1017.91 1017.60 1017.33 1017.28 1017.22 1017.13
1011.87 1012.32 1011.83 1011.89 1011.56 1011.70 1011.43 1010.78 1010.35 1010.28 1010.47 1011.27 1012.18 1012.81 1013.19 1013.68 1014.17 1014.65 1015.07 1015.44 1015.77 1015.88 1015.92 1015.97 1016.07 1016.41 1016.63 1016.70 1016.91 1017.00 1017.22 1017.37 1017.50 1017.54 1017.38 1017.54 1017.49 1017.76 1017.64 1017.69 1017.61 1017.94 1017.95 1017.97 1017.53 1017.24 1016.92 1016.77 1016.44
1011.81 1011.76 1012.36 1012.13 1012.27 1012.32 1012.10 1010.99 1010.20 1010.61 1010.77 1011.67 1012.38 1012.83 1013.32 1013.78 1014.10 1014.50 1014.98 1015.45 1015.68 1015.82 1015.98 1015.90 1016.14 1016.38 1016.63 1016.77 1016.90 1017.09 1017.24 1017.21 1017.46 1017.36 1017.27 1017.24 1017.23 1017.53 1017.64 1017.92 1017.93 1017.90 1017.77 1017.74 1017.84 1017.22 1017.05 1016.93 1016.59
1011.83 1012.17 1012.66 1012.90 1012.58 1012.60 1012.25 1011.04 1010.79 1010.78 1011.20 1011.65 1012.31 1012.73 1013.20 1013.62 1014.09 1014.21 1014.40 1014.89 1015.26 1015.57 1015.78 1016.02 1016.11 1016.19 1016.57 1016.73 1016.80 1016.84 1016.87 1016.98 1017.24 1017.29 1017.35 1017.20 1017.39 1017.43 1017.51 1017.81 1018.03 1017.90 1017.56 1017.56 1017.52 1017.23 1017.23 1017.25 1016.96
1011.74 1012.35 1012.61 1012.60 1012.68 1012.26 1012.15 1011.77 1011.02 1010.93 1011.37 1011.77 1012.38 1012.60 1012.91 1013.38 1013.56 1014.05 1014.27 1014.63 1014.96 1015.30 1015.66 1015.86 1016.05 1016.34 1016.41 1016.62 1016.74 1016.77 1016.81 1017.19 1017.31 1017.37 1017.24 1017.11 1017.43 1017.42 1017.59 1017.95 1018.09 1017.78 1017.59 1017.58 1017.32 1017.41 1017.61 1017.32 1017.42
1011.96 1012.07 1012.19 1012.09 1011.90 1011.93 1011.98 1011.29 1010.71 1010.82 1011.22 1011.67 1012.04 1012.40 1012.55 1013.18 1013.57 1013.73 1013.91 1014.19 1014.44 1014.91 1015.48 1015.79 1015.88 1016.00 1016.34 1016.50 1016.58 1016.74 1016.70 1016.85 1017.08 1017.12 1017.05 1016.99 1017.37 1017.51 1017.68 1017.98 1018.08 1017.57 1017.51 1017.64 1017.59 1017.59 1017.54 1017.51 1017.30
1011.47 1011.73 1011.44 1011.33 1011.21 1011.57 1011.64 1010.93 1010.63 1010.62 1010.92 1011.05 1011.52 1011.97 1012.37 1012.80 1012.86 1013.00 1013.42 1013.82 1014.17 1014.55 1015.09 1015.51 1015.74 1015.81 1016.01 1016.29 1016.59 1016.82 1016.88 1016.69 1016.81 1016.93 1017.00 1017.00 1017.40 1017.53 1017.81 1018.03 1017.93 1017.37 1017.58 1017.81 1017.73 1017.77 1017.49 1017.57 1017.31
1010.73 1011.11 1011.07 1010.57 1010.59 1011.20 1011.26 1011.15 1010.89 1010.45 1010.67 1010.96 1011.26 1011.75 1012.09 1012.36 1012.39 1012.81 1013.24 1013.52 1013.95 1014.38 1014.86 1015.17 1015.57 1015.73 1016.23 1016.57 1016.82 1017.18 1017.12 1016.73 1016.78 1016.80 1016.75 1016.95 1017.27 1017.45 1017.65 1017.67 1017.57 1017.32 1017.63 1017.95 1017.91 1017.79 1017.77 1017.47 1017.36
1010.23 1010.43 1010.50 1010.44 1010.44 1011.22 1011.47 1011.12 1010.68 1010.42 1010.26 1010.41 1010.69 1011.27 1011.55 1012.01 1012.53 1012.72 1012.91 1013.19 1013.52 1013.85 1014.47 1015.03 1015.19 1015.74 1015.93 1016.07 1016.24 1016.37 1016.68 1016.58 1016.61 1016.63 1016.59 1016.78 1016.96 1017.12 1017.17 1017.26 1017.66 1017.57 1017.71 1017.98 1017.81 1017.83 1017.98 1017.85 1017.68
1009.36 1009.54 1009.71 1010.27 1010.76 1011.57 1011.66 1011.22 1010.43 1010.11 1010.15 1010.20 1010.24 1010.49 1011.07 1011.37 1011.75 1012.20 1012.50 1012.68 1012.98 1013.48 1013.94 1014.50 1014.72 1015.11 1015.64 1015.84 1016.23 1016.50 1016.62 1016.63 1016.78 1016.70 1016.62 1016.46 1016.73 1016.96 1017.02 1017.10 1017.44 1017.50 1017.63 1017.79 1017.72 1017.77 1017.95 1017.92 1017.78
1008.59 1008.14 1009.09 1010.44 1011.42 1012.11 1011.97 1011.85 1010.30 1009.89 1009.79 1009.55 1009.78 1010.08 1010.54 1011.01 1011.46 1011.75 1012.11 1012.29 1012.43 1012.67 1013.17 1013.93 1014.61 1014.82 1015.32 1015.66 1016.04 1016.30 1016.52 1016.94 1016.86 1016.68 1016.56 1016.53 1016.65 1016.87 1016.85 1016.97 1017.13 1017.17 1017.45 1017.50 1017.71 1017.73 1017.82 1017.88 1018.02
1006.78 1007.75 1009.09 1010.74 1011.56 1012.12 1012.43 1012.56 1010.00 1009.69 1009.78 1008.83 1008.90 1009.42 1009.78 1010.01 1010.63 1011.23 1011.46 1011.76 1011.95 1012.35 1012.67 1013.19 1014.09 1014.65 1014.90 1015.15 1015.48 1015.86 1016.31 1016.63 1016.67 1016.62 1016.72 1016.69 1016.57 1016.58 1016.67 1016.91 1016.96 1017.30 1017.38 1017.54 1017.56 1017.76 1017.63 1017.77 1017.94
1006.96 1008.48 1010.14 1011.33 1012.20 1012.74 1011.78 1011.97 1009.46 1009.30 1008.24 1008.13 1008.40 1008.69 1009.11 1009.41 1010.01 1010.70 1011.20 1011.75 1012.02 1012.35 1012.68 1013.04 1013.81 1014.40 1014.53 1014.89 1015.12 1015.46 1015.91 1016.31 1016.62 1016.79 1016.79 1016.76 1016.68 1016.58 1016.53 1016.76 1017.08 1017.22 1017.38 1017.46 1017.35 1017.45 1017.50 1017.67 1017.76
1007.13 1008.68 1010.95 1012.40 1012.96 1012.54 1011.69 1011.52 1008.66 1007.34 1006.94 1006.79 1007.18 1007.64 1008.39 1008.82 1009.51 1010.35 1011.03 1011.72 1011.94 1012.21 1012.23 1012.77 1013.29 1013.73 1014.14 1014.54 1014.84 1015.10 1015.45 1015.70 1016.19 1016.47 1016.56 1016.70 1016.76 1016.62 1016.41 1016.59 1016.96 1017.17 1017.08 1017.16 1017.16 1017.27 1017.49 1017.75 1017.99
1006.50 1007.70 1009.20 1010.77 1012.01 1011.77 1011.45 1010.32 1007.67 1006.47 1005.60 1005.83 1006.31 1006.85 1007.81 1008.55 1009.12 1010.00 1010.73 1011.29 1011.62 1011.84 1012.07 1012.42 1013.04 1013.68 1013.94 1014.10 1014.47 1014.75 1015.00 1015.37 1015.62 1015.99 1016.38 1016.36 1016.51 1016.38 1016.39 1016.39 1016.56 1016.75 1016.91 1017.07 1017.00 1017.31 1017.37 1017.57 1017.83
1005.36 1006.52 1007.14 1009.27 1010.96 1011.30 1010.85 1009.24 1006.80 1006.25 1006.30 1006.22 1006.64 1007.16 1007.69 1008.33 1008.79 1009.45 1010.27 1010.67 1010.82 1011.04 1011.51 1011.94 1012.52 1013.13 1013.39 1013.71 1014.02 1014.39 1014.71 1015.06 1015.37 1015.62 1015.87 1016.01 1016.03 1016.27 1016.56 1016.32 1016.46 1016.34 1016.45 1016.50 1016.99 1017.21 1017.36 1017.42 1017.45
1003.95 1005.09 1007.10 1008.90 1010.48 1011.14 1010.59 1009.41 1007.35 1006.25 1006.50 1006.59 1006.83 1007.15 1007.42 1008.05 1008.58 1009.17 1009.76 1010.09 1010.03 1010.13 1010.85 1011.71 1012.15 1012.48 1012.92 1013.27 1013.53 1013.75 1014.07 1014.31 1014.59 1014.97 1015.36 1015.57 1015.78 1015.90 1015.95 1016.14 1016.26 1016.23 1016.40 1016.53 1016.80 1016.88 1017.02 1017.25 1017.24
1003.97 1005.08 1006.85 1008.38 1009.60 1010.41 1010.32 1009.03 1006.15 1005.63 1005.57 1006.02 1006.54 1006.79 1007.11 1007.47 1007.96 1008.58 1009.13 1009.38 1009.68 1010.49 1011.15 1011.49 1011.96 1012.36 1012.54 1012.54 1012.86 1013.16 1013.52 1013.82 1014.12 1014.43 1014.48 1014.79 1015.01 1015.29 1015.59 1015.62 1015.88 1016.09 1016.16 1016.22 1016.55 1016.69 1016.80 1017.01 1017.04
1003.19 1004.43 1006.02 1008.18 1009.84 1010.08 1009.64 1007.67 1005.89 1005.51 1005.28 1005.21 1006.00 1006.50 1006.80 1007.23 1007.79 1008.49 1009.17 1009.63 1009.94 1010.44 1010.98 1011.25 1011.74 1012.02 1011.90 1012.21 1012.45 1012.67 1012.79 1013.25 1013.50 1013.76 1014.22 1014.36 1014.47 1014.71 1014.90 1015.08 1015.46 1015.79 1016.04 1016.15 1016.29 1016.47 1016.44 1016.64 1016.81
Wind_Speed
5 4 2 2 1 1 3 1 2 4 3 4 6 7 8 6 2 2 3 3 9 6 5 6 12 13 14 13 13 12 12 11 11 12 11 10 10 10 11 11 12 11 11 12 10 9 10 9 8
4 4 3 1 3 2 4 2 3 2 7 9 11 7 5 3 3 7 5 5 7 6 5 6 9 12 14 14 13 12 13 11 11 11 12 11 11 10 11 11 12 11 10 11 10 10 9 8 7
4 2 3 3 3 2 4 2 7 11 7 2 5 6 3 3 7 8 4 6 6 5 5 6 13 11 13 13 13 13 11 11 11 11 12 11 11 11 10 12 12 11 10 10 9 9 8 7 5
2 3 3 5 3 3 8 4 11 11 4 7 9 8 4 1 3 6 11 8 5 4 5 9 14 14 13 12 13 13 13 12 12 12 11 12 12 12 9 12 12 12 10 9 8 8 7 5 4
3 3 4 4 4 5 5 10 12 5 4 4 2 3 3 3 10 11 11 8 7 5 2 4 13 15 14 13 13 13 12 12 11 12 11 10 12 11 11 12 12 10 9 7 6 6 5 4 3
5 2 5 2 5 5 6 5 7 4 6 7 7 5 3 5 10 7 8 6 4 5 5 4 10 13 14 14 13 13 13 12 12 12 12 10 10 10 11 10 11 9 7 5 3 3 3 2 1
6 4 1 4 6 6 4 2 4 6 6 4 7 5 3 3 6 7 7 6 5 4 5 3 2 6 13 13 13 13 13 12 11 12 10 9 8 10 10 9 8 6 5 3 2 3 4 4 3
4 4 2 4 3 4 2 3 1 7 5 8 8 6 5 5 8 8 7 6 5 4 3 3 2 3 1 3 11 11 12 11 11 11 9 8 8 8 9 6 4 3 1 1 2 3 5 6 5
3 5 1 5 5 3 5 4 7 5 11 2 3 5 9 12 11 9 6 4 4 3 3 2 3 3 2 1 5 9 12 12 11 8 7 5 4 3 6 3 0 1 2 4 5 6 6 9 10
3 3 8 7 5 5 9 8 2 4 7 5 9 12 14 13 10 9 5 5 4 4 3 3 3 3 3 2 3 4 4 4 3 4 4 3 2 1 3 0 3 3 4 5 7 7 8 7 6
4 6 4 2 3 7 7 10 4 13 4 9 15 16 13 12 8 6 5 5 5 4 4 4 5 4 3 3 3 1 2 1 1 3 1 1 2 1 1 0 1 2 4 3 5 3 4 2 4
1 3 4 2 4 2 5 10 4 10 4 12 15 17 14 13 11 9 6 6 5 5 5 4 4 4 3 2 2 2 2 1 0 1 1 1 1 2 1 1 0 2 2 3 3 3 3 4 8
2 4 6 7 13 4 7 7 4 7 11 13 15 16 16 14 12 7 6 5 6 6 4 5 4 4 3 2 2 2 0 1 0 1 4 3 3 3 2 1 2 1 1 1 4 3 2 2 4
2 8 8 4 9 10 7 9 7 7 14 14 15 15 13 12 11 8 8 7 7 6 6 7 5 5 4 2 3 2 2 3 1 3 4 4 4 4 3 1 1 1 2 2 5 3 3 1 1
7 7 7 6 6 4 7 2 4 9 12 15 15 13 12 10 9 12 12 11 11 7 7 5 5 5 5 5 3 3 3 1 2 3 3 3 2 4 4 2 2 1 1 4 4 2 1 2 3
4 2 1 5 8 6 2 4 2 5 14 12 13 12 12 12 14 9 11 9 8 7 8 7 7 6 5 4 4 3 3 3 3 3 4 5 3 4 4 2 2 2 3 2 2 2 1 2 3
4 3 3 1 11 6 8 4 6 6 9 14 13 12 12 9 8 8 13 12 11 10 7 7 7 8 7 5 4 4 4 3 3 3 4 5 4 4 4 2 3 2 1 2 1 1 0 2 1
4 3 3 5 7 7 4 5 4 4 3 11 18 12 11 11 15 12 14 12 11 10 8 7 7 6 5 4 1 1 2 3 0 2 4 4 3 5 2 2 4 1 3 3 2 2 1 3 1
4 1 2 3 5 3 4 3 7 10 10 7 7 12 13 13 11 9 12 12 11 9 9 8 7 7 6 2 2 1 4 1 1 3 6 5 5 5 4 2 1 2 2 2 3 2 3 3 2
4 2 3 1 6 3 2 10 8 6 6 10 10 12 15 13 7 10 11 13 13 13 10 8 8 6 5 4 3 3 3 1 2 1 4 5 6 5 4 1 1 2 1 2 1 3 2 2 1
6 7 5 4 7 3 2 7 7 5 5 6 9 12 11 15 13 10 9 13 14 13 13 10 9 8 6 6 3 2 2 2 2 1 2 2 5 5 6 4 4 3 2 1 1 1 1 2 2
6 13 6 8 5 1 1 6 6 6 6 7 10 11 12 12 8 8 9 9 14 15 12 11 8 8 7 7 4 4 4 3 3 2 1 2 4 5 6 5 5 3 2 2 1 1 2 2 2
13 11 10 6 4 3 4 1 6 5 8 14 12 13 15 13 14 13 12 13 12 12 12 10 9 10 9 9 7 5 4 3 2 2 3 4 4 4 4 4 4 3 1 3 3 1 1 1 1
4 10 11 4 3 3 5 5 7 7 14 10 7 10 14 12 12 10 7 6 7 9 8 9 9 8 8 8 8 8 8 6 3 3 4 4 3 2 4 4 3 2 3 4 3 1 1 1 1
9 5 4 4 3 7 3 4 12 7 8 11 16 14 14 15 13 9 10 9 8 9 11 10 10 10 9 8 8 8 8 7 7 6 4 3 2 3 5 3 4 4 5 4 3 2 2 3 2
8 9 8 8 6 5 2 6 8 3 6 8 9 11 12 11 11 10 11 9 11 10 10 9 11 10 8 9 8 7 7 5 5 5 4 4 3 4 3 5 5 5 5 4 3 2 3 3 3
5 4 4 8 4 4 3 7 10 5 5 5 7 8 10 10 11 12 12 13 13 14 14 11 8 7 9 10 8 7 7 7 6 7 5 4 4 3 5 5 6 6 6 6 4 3 4 3 3
8 7 2 4 3 3 4 5 7 3 8 6 7 8 8 8 9 9 11 13 14 11 10 8 9 9 7 7 8 9 10 9 8 7 7 7 6 5 6 6 6 6 6 4 4 3 4 4 3
3 2 6 6 4 7 3 8 7 8 7 9 8 7 9 10 12 11 10 12 10 6 5 8 7 7 8 9 8 8 8 8 7 7 8 7 6 7 7 6 6 6 6 6 5 6 6 5 5
5 6 6 6 4 1 4 8 3 7 8 8 9 9 8 7 7 7 9 8 6 7 7 8 8 8 8 8 8 7 7 7 8 8 7 6 7 6 8 6 6 5 6 6 6 6 6 7 6
Wind_Direction
141 143 162 48 28 28 308 213 204 95 23 325 57 92 105 28 83 189 133 136 132 147 167 166 155 152 145 146 148 142 138 138 135 138 134 130 125 125 130 137 131 128 117 110 114 121 122 119 118
155 171 55 103 64 38 286 133 108 59 120 127 98 113 64 76 60 113 115 164 142 142 149 149 157 151 148 153 150 146 143 145 146 140 137 140 135 139 137 136 132 125 122 118 121 120 120 120 119
186 22 74 73 60 27 340 20 125 122 158 17 107 61 91 105 111 154 147 147 124 140 152 169 160 157 153 153 152 147 140 134 143 142 142 142 141 140 141 131 129 127 118 119 118 108 108 101 98
7 23 57 70 345 291 324 94 125 129 61 59 100 77 74 97 128 152 140 147 142 169 172 170 163 157 158 153 149 148 146 148 144 142 143 142 139 141 148 133 126 123 131 119 126 124 105 94 84
29 50 29 44 319 281 333 141 160 117 105 46 90 105 64 19 114 131 150 146 146 155 167 149 166 163 157 154 153 154 148 143 143 137 138 140 143 134 142 127 132 134 132 145 143 111 94 68 35
59 51 29 327 289 306 293 187 129 104 96 133 92 89 44 112 121 132 127 123 115 132 115 190 180 169 155 158 157 157 151 141 137 133 129 135 130 136 135 135 128 138 142 159 139 91 58 62 22
108 89 109 299 280 292 109 194 135 121 133 113 132 90 111 139 129 116 112 112 112 114 110 111 163 178 163 162 162 161 145 139 135 130 129 126 131 137 133 133 133 145 165 171 51 356 326 336 14
98 87 94 233 253 295 250 208 104 123 66 111 141 158 169 170 125 104 93 106 116 120 125 136 101 107 107 161 166 164 149 138 138 140 132 125 127 133 143 122 141 162 189 262 283 296 320 310 294
164 76 259 255 219 234 41 90 178 82 127 193 125 125 137 139 119 110 106 88 103 136 142 125 119 97 94 124 178 151 151 144 144 132 124 98 54 41 74 114 123 223 277 297 300 302 312 335 335
115 127 210 200 265 300 359 355 167 135 137 72 75 101 125 135 137 140 149 156 159 165 183 159 141 137 122 131 92 81 117 95 102 66 60 84 108 123 70 45 303 293 295 290 280 300 5 347 322
195 170 187 272 168 293 316 325 286 146 176 184 156 152 149 145 142 158 171 173 188 175 186 165 157 160 133 138 106 98 93 120 94 89 65 244 103 23 352 354 331 298 297 333 336 339 104 186 264
213 253 164 1 176 323 313 320 146 173 216 159 153 156 154 158 169 178 184 172 179 179 186 161 166 159 160 145 127 164 147 209 110 192 170 224 355 266 253 184 234 332 360 345 318 292 256 213 215
155 203 48 78 56 20 316 287 265 194 141 140 154 165 170 170 175 178 173 164 168 188 187 189 175 160 156 193 193 216 11 294 335 329 243 214 212 247 190 191 101 357 49 312 273 327 347 208 230
141 109 127 77 55 353 326 299 163 150 145 154 168 179 177 179 183 170 159 178 181 185 197 199 193 159 177 204 219 209 206 235 207 261 287 236 201 191 154 184 100 81 141 214 285 310 354 311 309
135 116 122 136 147 179 297 352 54 145 166 166 181 182 178 184 190 187 181 181 181 195 189 208 186 173 190 205 224 241 242 225 240 270 283 257 217 180 178 166 266 259 277 263 280 349 87 109 281
147 131 128 164 179 177 245 249 252 170 176 181 191 189 178 190 191 182 185 184 184 183 190 185 196 194 213 202 228 238 262 241 232 228 227 235 225 201 186 175 263 257 269 297 291 20 150 209 229
0 172 161 184 202 166 208 180 223 168 147 192 197 200 188 182 193 181 193 187 183 190 180 190 201 190 200 220 216 241 265 259 230 204 219 223 203 209 171 189 256 248 355 318 77 325 231 284 325
220 216 215 183 203 190 223 232 156 197 219 185 195 193 192 185 206 192 191 188 189 190 182 191 197 216 182 170 251 322 296 273 126 188 218 213 201 194 180 218 251 16 31 341 13 295 269 240 120
130 175 272 226 176 172 232 236 234 238 198 198 202 188 196 200 202 192 187 191 187 192 180 198 203 201 155 149 167 183 252 235 226 203 215 204 204 204 209 210 313 37 34 341 305 16 334 351 30
169 171 220 350 156 150 207 257 245 202 204 204 205 190 195 199 173 189 186 190 194 194 194 189 200 197 197 170 181 149 177 201 250 209 222 200 213 232 231 208 166 166 96 320 32 39 344 309 9
193 189 194 199 137 18 337 297 238 216 183 214 217 198 197 193 192 184 191 191 195 196 193 196 201 190 194 192 112 80 62 40 359 310 184 210 213 218 218 218 207 179 135 302 53 351 15 350 1
234 206 180 128 85 215 100 281 252 211 190 211 203 179 193 200 191 199 196 183 185 201 191 184 193 199 192 175 165 160 160 176 230 233 208 276 230 224 216 217 218 200 169 277 293 191 212 133 41
235 164 161 123 111 128 175 320 267 129 231 221 207 193 197 200 189 196 194 194 188 185 189 184 176 198 205 178 186 175 162 174 198 246 216 245 285 258 245 234 234 239 200 256 263 226 194 120 125
85 99 72 53 78 350 216 141 272 179 220 228 200 195 192 196 198 197 179 166 165 180 174 174 173 191 185 186 182 188 186 189 195 224 243 245 244 245 240 253 248 258 252 248 250 235 208 176 4
89 130 49 16 342 223 175 146 253 270 222 204 195 193 188 194 196 175 166 167 168 174 177 176 181 200 193 184 195 187 192 182 192 219 229 242 239 227 228 208 221 223 235 231 223 212 224 180 197
175 172 155 189 200 245 152 229 255 267 283 182 183 186 179 179 183 177 172 173 185 184 185 178 182 199 196 188 201 204 192 189 186 197 214 225 220 234 232 217 212 230 253 228 223 240 223 226 227
208 193 193 106 30 90 239 290 289 115 71 116 139 163 187 177 181 175 170 178 186 191 198 186 172 194 189 204 197 202 197 194 197 213 202 230 226 225 244 235 218 217 232 241 199 226 253 221 234
160 167 81 4 149 202 275 269 237 247 164 157 167 193 184 178 189 179 182 190 207 191 192 176 186 194 186 194 204 204 205 199 195 191 210 210 216 211 219 222 227 220 216 221 227 250 252 250 249
92 161 54 120 126 166 178 261 221 206 209 173 178 194 187 182 196 185 185 199 202 172 164 169 176 181 199 201 192 200 195 200 190 203 208 203 200 204 217 220 218 217 219 218 212 229 248 241 248
175 167 136 129 218 143 153 273 291 242 187 174 151 180 193 178 191 151 169 183 177 178 167 178 179 182 190 176 174 184 187 192 200 202 213 209 207 204 215 203 210 214 219 230 218 230 221 219 240